owner,sensor,date,latitude,longitude,vertical_datum,sea_water_practical_salinity,qcFlag 
DISL,ioos:station:DISL:KATA:1,2017-08-01T00:00:00Z,30.2583,-88.2131,4.045,29.8,1111122 
DISL,ioos:station:DISL:KATA:1,2017-08-01T00:30:00Z,30.2583,-88.2131,4.055,29.94,1111122 
DISL,ioos:station:DISL:KATA:1,2017-08-01T01:00:00Z,30.2583,-88.2131,4.069,30.1,1111122 
DISL,ioos:station:DISL:KATA:1,2017-08-01T01:30:00Z,30.2583,-88.2131,4.089,30.22,1111122 
DISL,ioos:station:DISL:KATA:1,2017-08-01T02:00:00Z,30.2583,-88.2131,4.1,30.4,1111122 
DISL,ioos:station:DISL:KATA:1,2017-08-01T02:30:00Z,30.2583,-88.2131,4.114,30.5,1111122 
DISL,ioos:station:DISL:KATA:1,2017-08-01T03:00:00Z,30.2583,-88.2131,4.123,30.55,1111122 
DISL,ioos:station:DISL:KATA:1,2017-08-01T03:30:00Z,30.2583,-88.2131,4.128,30.57,1111122 
DISL,ioos:station:DISL:KATA:1,2017-08-01T04:00:00Z,30.2583,-88.2131,4.142,30.55,1111122 
DISL,ioos:station:DISL:KATA:1,2017-08-01T04:30:00Z,30.2583,-88.2131,4.152,30.51,1111122 
DISL,ioos:station:DISL:KATA:1,2017-08-01T05:00:00Z,30.2583,-88.2131,4.165,30.47,1111122 
DISL,ioos:station:DISL:KATA:1,2017-08-01T05:30:00Z,30.2583,-88.2131,4.173,30.43,1111122 
DISL,ioos:station:DISL:KATA:1,2017-08-01T06:00:00Z,30.2583,-88.2131,4.19,30.38,1111122 
DISL,ioos:station:DISL:KATA:1,2017-08-01T06:30:00Z,30.2583,-88.2131,4.201,30.34,1111122 
DISL,ioos:station:DISL:KATA:1,2017-08-01T07:00:00Z,30.2583,-88.2131,4.218,30.28,1111122 
DISL,ioos:station:DISL:KATA:1,2017-08-01T07:30:00Z,30.2583,-88.2131,4.236,30.24,1111122 
DISL,ioos:station:DISL:KATA:1,2017-08-01T08:00:00Z,30.2583,-88.2131,4.261,30.2,1111122 
DISL,ioos:station:DISL:KATA:1,2017-08-01T08:30:00Z,30.2583,-88.2131,4.274,30.17,1111122 
DISL,ioos:station:DISL:KATA:1,2017-08-01T09:00:00Z,30.2583,-88.2131,4.294,30.14,1111122 
DISL,ioos:station:DISL:KATA:1,2017-08-01T09:30:00Z,30.2583,-88.2131,4.312,30.12,1111122 
DISL,ioos:station:DISL:KATA:1,2017-08-01T10:00:00Z,30.2583,-88.2131,4.324,30.07,1111122 
DISL,ioos:station:DISL:KATA:1,2017-08-01T10:30:00Z,30.2583,-88.2131,4.332,30.02,1111122 
DISL,ioos:station:DISL:KATA:1,2017-08-01T11:00:00Z,30.2583,-88.2131,4.331,29.96,1111122 
DISL,ioos:station:DISL:KATA:1,2017-08-01T11:30:00Z,30.2583,-88.2131,4.323,29.81,1111122 
DISL,ioos:station:DISL:KATA:1,2017-08-01T12:00:00Z,30.2583,-88.2131,4.33,28.76,1111122 
DISL,ioos:station:DISL:KATA:1,2017-08-01T12:30:00Z,30.2583,-88.2131,4.323,29.74,1111122 
DISL,ioos:station:DISL:KATA:1,2017-08-01T13:00:00Z,30.2583,-88.2131,4.315,29.68,1111122 
DISL,ioos:station:DISL:KATA:1,2017-08-01T13:30:00Z,30.2583,-88.2131,4.318,29.63,1111122 
DISL,ioos:station:DISL:KATA:1,2017-08-01T14:00:00Z,30.2583,-88.2131,4.31,29.66,1111122 
DISL,ioos:station:DISL:KATA:1,2017-08-01T14:30:00Z,30.2583,-88.2131,4.296,29.64,1111122 
DISL,ioos:station:DISL:KATA:1,2017-08-01T15:00:00Z,30.2583,-88.2131,4.268,29.71,1111122 
DISL,ioos:station:DISL:KATA:1,2017-08-01T15:30:00Z,30.2583,-88.2131,4.241,29.59,1111122 
DISL,ioos:station:DISL:KATA:1,2017-08-01T16:00:00Z,30.2583,-88.2131,4.199,29.65,1111122 
DISL,ioos:station:DISL:KATA:1,2017-08-01T16:30:00Z,30.2583,-88.2131,4.156,28.4,1111122 
DISL,ioos:station:DISL:KATA:1,2017-08-01T17:00:00Z,30.2583,-88.2131,4.124,29.36,1111122 
DISL,ioos:station:DISL:KATA:1,2017-08-01T17:30:00Z,30.2583,-88.2131,4.091,29.73,1111122 
DISL,ioos:station:DISL:KATA:1,2017-08-01T18:00:00Z,30.2583,-88.2131,4.068,29.76,1111122 
DISL,ioos:station:DISL:KATA:1,2017-08-01T18:30:00Z,30.2583,-88.2131,4.057,29.71,1111122 
DISL,ioos:station:DISL:KATA:1,2017-08-01T19:00:00Z,30.2583,-88.2131,4.048,28.45,1111122 
DISL,ioos:station:DISL:KATA:1,2017-08-01T19:30:00Z,30.2583,-88.2131,4.048,28.45,1111122 
DISL,ioos:station:DISL:KATA:1,2017-08-01T20:00:00Z,30.2583,-88.2131,4.03,29.82,1111122 
DISL,ioos:station:DISL:KATA:1,2017-08-01T20:30:00Z,30.2583,-88.2131,4.018,29.86,1111122 
DISL,ioos:station:DISL:KATA:1,2017-08-01T21:00:00Z,30.2583,-88.2131,4.005,29.5,1111122 
DISL,ioos:station:DISL:KATA:1,2017-08-01T21:30:00Z,30.2583,-88.2131,4.0,29.9,1111122 
DISL,ioos:station:DISL:KATA:1,2017-08-01T22:00:00Z,30.2583,-88.2131,4.001,29.9,1111122 
DISL,ioos:station:DISL:KATA:1,2017-08-01T22:30:00Z,30.2583,-88.2131,4.001,29.9,1111122 
DISL,ioos:station:DISL:KATA:1,2017-08-01T23:00:00Z,30.2583,-88.2131,4.013,29.86,1111122 
DISL,ioos:station:DISL:KATA:1,2017-08-01T23:30:00Z,30.2583,-88.2131,4.013,29.86,1111122 
DISL,ioos:station:DISL:KATA:1,2017-08-02T00:00:00Z,30.2583,-88.2131,4.02,29.77,1111122 
DISL,ioos:station:DISL:KATA:1,2017-08-02T00:30:00Z,30.2583,-88.2131,4.028,29.88,1111122 
DISL,ioos:station:DISL:KATA:1,2017-08-02T01:00:00Z,30.2583,-88.2131,4.033,30.03,1111122 
DISL,ioos:station:DISL:KATA:1,2017-08-02T01:30:00Z,30.2583,-88.2131,4.034,30.0,1111122 
DISL,ioos:station:DISL:KATA:1,2017-08-02T02:00:00Z,30.2583,-88.2131,4.034,30.0,1111122 
DISL,ioos:station:DISL:KATA:1,2017-08-02T02:30:00Z,30.2583,-88.2131,4.06,29.9,1111122 
DISL,ioos:station:DISL:KATA:1,2017-08-02T03:00:00Z,30.2583,-88.2131,4.081,29.75,1111122 
DISL,ioos:station:DISL:KATA:1,2017-08-02T03:30:00Z,30.2583,-88.2131,4.103,29.67,1111122 
DISL,ioos:station:DISL:KATA:1,2017-08-02T04:00:00Z,30.2583,-88.2131,4.119,29.61,1111122 
DISL,ioos:station:DISL:KATA:1,2017-08-02T04:30:00Z,30.2583,-88.2131,4.139,29.5,1111122 
DISL,ioos:station:DISL:KATA:1,2017-08-02T05:00:00Z,30.2583,-88.2131,4.159,29.4,1111122 
DISL,ioos:station:DISL:KATA:1,2017-08-02T05:30:00Z,30.2583,-88.2131,4.18,29.22,1111122 
DISL,ioos:station:DISL:KATA:1,2017-08-02T06:00:00Z,30.2583,-88.2131,4.202,28.66,1111122 
DISL,ioos:station:DISL:KATA:1,2017-08-02T06:30:00Z,30.2583,-88.2131,4.226,28.75,1111122 
DISL,ioos:station:DISL:KATA:1,2017-08-02T07:00:00Z,30.2583,-88.2131,4.255,28.56,1111122 
DISL,ioos:station:DISL:KATA:1,2017-08-02T07:30:00Z,30.2583,-88.2131,4.282,28.51,1111122 
DISL,ioos:station:DISL:KATA:1,2017-08-02T08:00:00Z,30.2583,-88.2131,4.305,28.55,1111122 
DISL,ioos:station:DISL:KATA:1,2017-08-02T08:30:00Z,30.2583,-88.2131,4.327,28.54,1111122 
DISL,ioos:station:DISL:KATA:1,2017-08-02T09:00:00Z,30.2583,-88.2131,4.343,28.41,1111122 
DISL,ioos:station:DISL:KATA:1,2017-08-02T09:30:00Z,30.2583,-88.2131,4.352,28.37,1111122 
DISL,ioos:station:DISL:KATA:1,2017-08-02T10:00:00Z,30.2583,-88.2131,4.37,28.1,1111122 
DISL,ioos:station:DISL:KATA:1,2017-08-02T10:30:00Z,30.2583,-88.2131,4.377,28.01,1111122 
DISL,ioos:station:DISL:KATA:1,2017-08-02T11:00:00Z,30.2583,-88.2131,4.378,28.35,1111122 
DISL,ioos:station:DISL:KATA:1,2017-08-02T11:30:00Z,30.2583,-88.2131,4.375,28.42,1111122 
DISL,ioos:station:DISL:KATA:1,2017-08-02T12:00:00Z,30.2583,-88.2131,4.367,28.43,1111122 
DISL,ioos:station:DISL:KATA:1,2017-08-02T12:30:00Z,30.2583,-88.2131,4.364,28.39,1111122 
DISL,ioos:station:DISL:KATA:1,2017-08-02T13:00:00Z,30.2583,-88.2131,4.351,28.32,1111122 
DISL,ioos:station:DISL:KATA:1,2017-08-02T13:30:00Z,30.2583,-88.2131,4.342,28.2,1111122 
DISL,ioos:station:DISL:KATA:1,2017-08-02T14:00:00Z,30.2583,-88.2131,4.32,28.08,1111122 
DISL,ioos:station:DISL:KATA:1,2017-08-02T14:30:00Z,30.2583,-88.2131,4.296,28.1,1111122 
DISL,ioos:station:DISL:KATA:1,2017-08-02T15:00:00Z,30.2583,-88.2131,4.287,27.99,1111122 
DISL,ioos:station:DISL:KATA:1,2017-08-02T15:30:00Z,30.2583,-88.2131,4.262,27.96,1111122 
DISL,ioos:station:DISL:KATA:1,2017-08-02T16:00:00Z,30.2583,-88.2131,4.243,27.95,1111122 
DISL,ioos:station:DISL:KATA:1,2017-08-02T16:30:00Z,30.2583,-88.2131,4.222,28.02,1111122 
DISL,ioos:station:DISL:KATA:1,2017-08-02T17:00:00Z,30.2583,-88.2131,4.184,28.07,1111122 
DISL,ioos:station:DISL:KATA:1,2017-08-02T17:30:00Z,30.2583,-88.2131,4.154,28.17,1111122 
DISL,ioos:station:DISL:KATA:1,2017-08-02T18:00:00Z,30.2583,-88.2131,4.115,28.16,1111122 
DISL,ioos:station:DISL:KATA:1,2017-08-02T18:30:00Z,30.2583,-88.2131,4.088,27.87,1111122 
DISL,ioos:station:DISL:KATA:1,2017-08-02T19:00:00Z,30.2583,-88.2131,4.062,28.08,1111122 
DISL,ioos:station:DISL:KATA:1,2017-08-02T19:30:00Z,30.2583,-88.2131,4.035,28.12,1111122 
DISL,ioos:station:DISL:KATA:1,2017-08-02T20:00:00Z,30.2583,-88.2131,4.01,28.12,1111122 
DISL,ioos:station:DISL:KATA:1,2017-08-02T20:30:00Z,30.2583,-88.2131,4.004,28.14,1111122 
DISL,ioos:station:DISL:KATA:1,2017-08-02T21:00:00Z,30.2583,-88.2131,3.991,28.1,1111122 
DISL,ioos:station:DISL:KATA:1,2017-08-02T21:30:00Z,30.2583,-88.2131,3.976,28.14,1111122 
DISL,ioos:station:DISL:KATA:1,2017-08-02T22:00:00Z,30.2583,-88.2131,3.96,28.24,1111122 
DISL,ioos:station:DISL:KATA:1,2017-08-02T22:30:00Z,30.2583,-88.2131,3.949,28.33,1111122 
DISL,ioos:station:DISL:KATA:1,2017-08-02T23:00:00Z,30.2583,-88.2131,3.971,28.46,1111122 
DISL,ioos:station:DISL:KATA:1,2017-08-02T23:30:00Z,30.2583,-88.2131,3.979,28.42,1111122 
DISL,ioos:station:DISL:KATA:1,2017-08-03T00:00:00Z,30.2583,-88.2131,3.995,28.67,1111122 
DISL,ioos:station:DISL:KATA:1,2017-08-03T00:30:00Z,30.2583,-88.2131,4.013,28.78,1111122 
DISL,ioos:station:DISL:KATA:1,2017-08-03T01:00:00Z,30.2583,-88.2131,4.034,28.7,1111122 
DISL,ioos:station:DISL:KATA:1,2017-08-03T01:30:00Z,30.2583,-88.2131,4.054,28.73,1111122 
DISL,ioos:station:DISL:KATA:1,2017-08-03T02:00:00Z,30.2583,-88.2131,4.07,28.64,1111122 
DISL,ioos:station:DISL:KATA:1,2017-08-03T02:30:00Z,30.2583,-88.2131,4.085,28.56,1111122 
DISL,ioos:station:DISL:KATA:1,2017-08-03T03:00:00Z,30.2583,-88.2131,4.108,28.37,1111122 
DISL,ioos:station:DISL:KATA:1,2017-08-03T03:30:00Z,30.2583,-88.2131,4.118,28.6,1111122 
DISL,ioos:station:DISL:KATA:1,2017-08-03T04:00:00Z,30.2583,-88.2131,4.131,28.58,1111122 
DISL,ioos:station:DISL:KATA:1,2017-08-03T04:30:00Z,30.2583,-88.2131,4.157,28.58,1111122 
DISL,ioos:station:DISL:KATA:1,2017-08-03T05:00:00Z,30.2583,-88.2131,4.182,28.53,1111122 
DISL,ioos:station:DISL:KATA:1,2017-08-03T05:30:00Z,30.2583,-88.2131,4.206,28.36,1111122 
DISL,ioos:station:DISL:KATA:1,2017-08-03T06:00:00Z,30.2583,-88.2131,4.227,27.95,1111122 
DISL,ioos:station:DISL:KATA:1,2017-08-03T06:30:00Z,30.2583,-88.2131,4.254,28.0,1111122 
DISL,ioos:station:DISL:KATA:1,2017-08-03T07:00:00Z,30.2583,-88.2131,4.267,27.95,1111122 
DISL,ioos:station:DISL:KATA:1,2017-08-03T07:30:00Z,30.2583,-88.2131,4.276,27.69,1111122 
DISL,ioos:station:DISL:KATA:1,2017-08-03T08:00:00Z,30.2583,-88.2131,4.271,27.38,1111122 
DISL,ioos:station:DISL:KATA:1,2017-08-03T08:30:00Z,30.2583,-88.2131,4.273,27.22,1111122 
DISL,ioos:station:DISL:KATA:1,2017-08-03T09:00:00Z,30.2583,-88.2131,4.296,27.02,1111122 
DISL,ioos:station:DISL:KATA:1,2017-08-03T09:30:00Z,30.2583,-88.2131,4.322,27.48,1111122 
DISL,ioos:station:DISL:KATA:1,2017-08-03T10:00:00Z,30.2583,-88.2131,4.35,27.46,1111122 
DISL,ioos:station:DISL:KATA:1,2017-08-03T10:30:00Z,30.2583,-88.2131,4.378,27.76,1111122 
DISL,ioos:station:DISL:KATA:1,2017-08-03T11:00:00Z,30.2583,-88.2131,4.384,28.13,1111122 
DISL,ioos:station:DISL:KATA:1,2017-08-03T11:30:00Z,30.2583,-88.2131,4.386,27.99,1111122 
DISL,ioos:station:DISL:KATA:1,2017-08-03T12:00:00Z,30.2583,-88.2131,4.373,27.94,1111122 
DISL,ioos:station:DISL:KATA:1,2017-08-03T12:30:00Z,30.2583,-88.2131,4.373,27.97,1111122 
DISL,ioos:station:DISL:KATA:1,2017-08-03T13:00:00Z,30.2583,-88.2131,4.357,27.95,1111122 
DISL,ioos:station:DISL:KATA:1,2017-08-03T13:30:00Z,30.2583,-88.2131,4.367,27.94,1111122 
DISL,ioos:station:DISL:KATA:1,2017-08-03T14:00:00Z,30.2583,-88.2131,4.341,27.88,1111122 
DISL,ioos:station:DISL:KATA:1,2017-08-03T14:30:00Z,30.2583,-88.2131,4.333,27.44,1111122 
DISL,ioos:station:DISL:KATA:1,2017-08-03T15:00:00Z,30.2583,-88.2131,4.337,27.46,1111122 
DISL,ioos:station:DISL:KATA:1,2017-08-03T15:30:00Z,30.2583,-88.2131,4.322,27.41,1111122 
DISL,ioos:station:DISL:KATA:1,2017-08-03T16:00:00Z,30.2583,-88.2131,4.323,27.35,1111122 
DISL,ioos:station:DISL:KATA:1,2017-08-03T16:30:00Z,30.2583,-88.2131,4.295,27.43,1111122 
DISL,ioos:station:DISL:KATA:1,2017-08-03T17:00:00Z,30.2583,-88.2131,4.286,27.43,1111122 
DISL,ioos:station:DISL:KATA:1,2017-08-03T17:30:00Z,30.2583,-88.2131,4.243,27.43,1111122 
DISL,ioos:station:DISL:KATA:1,2017-08-03T18:00:00Z,30.2583,-88.2131,4.201,27.39,1111122 
DISL,ioos:station:DISL:KATA:1,2017-08-03T18:30:00Z,30.2583,-88.2131,4.135,27.63,1111122 
DISL,ioos:station:DISL:KATA:1,2017-08-03T19:00:00Z,30.2583,-88.2131,4.105,27.5,1111122 
DISL,ioos:station:DISL:KATA:1,2017-08-03T19:30:00Z,30.2583,-88.2131,4.072,27.33,1111122 
DISL,ioos:station:DISL:KATA:1,2017-08-03T20:00:00Z,30.2583,-88.2131,4.035,27.32,1111122 
DISL,ioos:station:DISL:KATA:1,2017-08-03T20:30:00Z,30.2583,-88.2131,4.026,27.28,1111122 
DISL,ioos:station:DISL:KATA:1,2017-08-03T21:00:00Z,30.2583,-88.2131,3.99,27.29,1111122 
DISL,ioos:station:DISL:KATA:1,2017-08-03T21:30:00Z,30.2583,-88.2131,3.952,27.3,1111122 
DISL,ioos:station:DISL:KATA:1,2017-08-03T22:00:00Z,30.2583,-88.2131,3.95,27.29,1111122 
DISL,ioos:station:DISL:KATA:1,2017-08-03T22:30:00Z,30.2583,-88.2131,3.944,27.29,1111122 
DISL,ioos:station:DISL:KATA:1,2017-08-03T23:00:00Z,30.2583,-88.2131,3.944,27.29,1111122 
DISL,ioos:station:DISL:KATA:1,2017-08-03T23:30:00Z,30.2583,-88.2131,3.977,27.37,1111122 
DISL,ioos:station:DISL:KATA:1,2017-08-04T00:00:00Z,30.2583,-88.2131,3.969,27.39,1111122 
DISL,ioos:station:DISL:KATA:1,2017-08-04T00:30:00Z,30.2583,-88.2131,3.968,27.41,1111122 
DISL,ioos:station:DISL:KATA:1,2017-08-04T01:00:00Z,30.2583,-88.2131,3.963,27.44,1111122 
DISL,ioos:station:DISL:KATA:1,2017-08-04T01:30:00Z,30.2583,-88.2131,3.957,27.49,1111122 
DISL,ioos:station:DISL:KATA:1,2017-08-04T02:00:00Z,30.2583,-88.2131,3.973,27.49,1111122 
DISL,ioos:station:DISL:KATA:1,2017-08-04T02:30:00Z,30.2583,-88.2131,3.983,27.48,1111122 
DISL,ioos:station:DISL:KATA:1,2017-08-04T03:00:00Z,30.2583,-88.2131,4.012,27.46,1111122 
DISL,ioos:station:DISL:KATA:1,2017-08-04T03:30:00Z,30.2583,-88.2131,4.053,27.47,1111122 
DISL,ioos:station:DISL:KATA:1,2017-08-04T04:00:00Z,30.2583,-88.2131,4.096,27.41,1111122 
DISL,ioos:station:DISL:KATA:1,2017-08-04T04:30:00Z,30.2583,-88.2131,4.133,27.38,1111122 
DISL,ioos:station:DISL:KATA:1,2017-08-04T05:00:00Z,30.2583,-88.2131,4.168,27.35,1111122 
DISL,ioos:station:DISL:KATA:1,2017-08-04T05:30:00Z,30.2583,-88.2131,4.205,27.34,1111122 
DISL,ioos:station:DISL:KATA:1,2017-08-04T06:00:00Z,30.2583,-88.2131,4.22,27.35,1111122 
DISL,ioos:station:DISL:KATA:1,2017-08-04T06:30:00Z,30.2583,-88.2131,4.216,27.34,1111122 
DISL,ioos:station:DISL:KATA:1,2017-08-04T07:00:00Z,30.2583,-88.2131,4.258,27.29,1111122 
DISL,ioos:station:DISL:KATA:1,2017-08-04T07:30:00Z,30.2583,-88.2131,4.258,27.27,1111122 
DISL,ioos:station:DISL:KATA:1,2017-08-04T08:00:00Z,30.2583,-88.2131,4.294,27.25,1111122 
DISL,ioos:station:DISL:KATA:1,2017-08-04T08:30:00Z,30.2583,-88.2131,4.341,27.15,1111122 
DISL,ioos:station:DISL:KATA:1,2017-08-04T09:00:00Z,30.2583,-88.2131,4.375,27.17,1111122 
DISL,ioos:station:DISL:KATA:1,2017-08-04T09:30:00Z,30.2583,-88.2131,4.379,27.2,1111122 
DISL,ioos:station:DISL:KATA:1,2017-08-04T10:00:00Z,30.2583,-88.2131,4.388,27.14,1111122 
DISL,ioos:station:DISL:KATA:1,2017-08-04T10:30:00Z,30.2583,-88.2131,4.396,27.09,1111122 
DISL,ioos:station:DISL:KATA:1,2017-08-04T11:00:00Z,30.2583,-88.2131,4.406,27.04,1111122 
DISL,ioos:station:DISL:KATA:1,2017-08-04T11:30:00Z,30.2583,-88.2131,4.43,26.62,1111122 
DISL,ioos:station:DISL:KATA:1,2017-08-04T12:00:00Z,30.2583,-88.2131,4.434,26.49,1111122 
DISL,ioos:station:DISL:KATA:1,2017-08-04T12:30:00Z,30.2583,-88.2131,4.446,26.6,1111122 
DISL,ioos:station:DISL:KATA:1,2017-08-04T13:00:00Z,30.2583,-88.2131,4.469,25.45,1111122 
DISL,ioos:station:DISL:KATA:1,2017-08-04T13:30:00Z,30.2583,-88.2131,4.44,25.92,1111122 
DISL,ioos:station:DISL:KATA:1,2017-08-04T14:00:00Z,30.2583,-88.2131,4.418,24.97,1111122 
DISL,ioos:station:DISL:KATA:1,2017-08-04T14:30:00Z,30.2583,-88.2131,4.436,25.3,1111122 
DISL,ioos:station:DISL:KATA:1,2017-08-04T15:00:00Z,30.2583,-88.2131,4.437,24.94,1111122 
DISL,ioos:station:DISL:KATA:1,2017-08-04T15:30:00Z,30.2583,-88.2131,4.43,25.41,1111122 
DISL,ioos:station:DISL:KATA:1,2017-08-04T16:00:00Z,30.2583,-88.2131,4.382,25.09,1111122 
DISL,ioos:station:DISL:KATA:1,2017-08-04T16:30:00Z,30.2583,-88.2131,4.399,24.9,1111122 
DISL,ioos:station:DISL:KATA:1,2017-08-04T17:00:00Z,30.2583,-88.2131,4.334,24.48,1111122 
DISL,ioos:station:DISL:KATA:1,2017-08-04T17:30:00Z,30.2583,-88.2131,4.287,24.09,1111122 
DISL,ioos:station:DISL:KATA:1,2017-08-04T18:00:00Z,30.2583,-88.2131,4.275,24.14,1111122 
DISL,ioos:station:DISL:KATA:1,2017-08-04T18:30:00Z,30.2583,-88.2131,4.209,23.66,1111122 
DISL,ioos:station:DISL:KATA:1,2017-08-04T19:00:00Z,30.2583,-88.2131,4.153,23.99,1111122 
DISL,ioos:station:DISL:KATA:1,2017-08-04T19:30:00Z,30.2583,-88.2131,4.112,21.72,1111122 
DISL,ioos:station:DISL:KATA:1,2017-08-04T20:00:00Z,30.2583,-88.2131,4.058,21.77,1111122 
DISL,ioos:station:DISL:KATA:1,2017-08-04T20:30:00Z,30.2583,-88.2131,4.025,21.87,1111122 
DISL,ioos:station:DISL:KATA:1,2017-08-04T21:00:00Z,30.2583,-88.2131,4.015,21.93,1111122 
DISL,ioos:station:DISL:KATA:1,2017-08-04T21:30:00Z,30.2583,-88.2131,3.987,21.58,1111122 
DISL,ioos:station:DISL:KATA:1,2017-08-04T22:00:00Z,30.2583,-88.2131,3.987,21.58,1111122 
DISL,ioos:station:DISL:KATA:1,2017-08-04T22:30:00Z,30.2583,-88.2131,4.035,21.74,1111122 
DISL,ioos:station:DISL:KATA:1,2017-08-04T23:00:00Z,30.2583,-88.2131,4.057,21.82,1111122 
DISL,ioos:station:DISL:KATA:1,2017-08-04T23:30:00Z,30.2583,-88.2131,4.131,21.62,1111122 
DISL,ioos:station:DISL:KATA:1,2017-08-05T00:00:00Z,30.2583,-88.2131,4.056,21.72,1111122 
DISL,ioos:station:DISL:KATA:1,2017-08-05T00:30:00Z,30.2583,-88.2131,4.049,21.74,1111122 
DISL,ioos:station:DISL:KATA:1,2017-08-05T01:00:00Z,30.2583,-88.2131,4.051,21.54,1111122 
DISL,ioos:station:DISL:KATA:1,2017-08-05T01:30:00Z,30.2583,-88.2131,4.022,21.55,1111122 
DISL,ioos:station:DISL:KATA:1,2017-08-05T02:00:00Z,30.2583,-88.2131,3.966,21.82,1111122 
DISL,ioos:station:DISL:KATA:1,2017-08-05T02:30:00Z,30.2583,-88.2131,3.975,21.81,1111122 
DISL,ioos:station:DISL:KATA:1,2017-08-05T03:00:00Z,30.2583,-88.2131,4.007,21.84,1111122 
DISL,ioos:station:DISL:KATA:1,2017-08-05T03:30:00Z,30.2583,-88.2131,4.035,21.85,1111122 
DISL,ioos:station:DISL:KATA:1,2017-08-05T04:00:00Z,30.2583,-88.2131,4.046,21.84,1111122 
DISL,ioos:station:DISL:KATA:1,2017-08-05T04:30:00Z,30.2583,-88.2131,4.07,21.82,1111122 
DISL,ioos:station:DISL:KATA:1,2017-08-05T05:00:00Z,30.2583,-88.2131,4.11,21.8,1111122 
DISL,ioos:station:DISL:KATA:1,2017-08-05T05:30:00Z,30.2583,-88.2131,4.144,21.8,1111122 
DISL,ioos:station:DISL:KATA:1,2017-08-05T06:00:00Z,30.2583,-88.2131,4.179,21.8,1111122 
DISL,ioos:station:DISL:KATA:1,2017-08-05T06:30:00Z,30.2583,-88.2131,4.212,21.78,1111122 
DISL,ioos:station:DISL:KATA:1,2017-08-05T07:00:00Z,30.2583,-88.2131,4.222,22.01,1111122 
DISL,ioos:station:DISL:KATA:1,2017-08-05T07:30:00Z,30.2583,-88.2131,4.235,21.65,1111122 
DISL,ioos:station:DISL:KATA:1,2017-08-05T08:00:00Z,30.2583,-88.2131,4.243,21.82,1111122 
DISL,ioos:station:DISL:KATA:1,2017-08-05T08:30:00Z,30.2583,-88.2131,4.249,21.94,1111122 
DISL,ioos:station:DISL:KATA:1,2017-08-05T09:00:00Z,30.2583,-88.2131,4.239,22.0,1111122 
DISL,ioos:station:DISL:KATA:1,2017-08-05T09:30:00Z,30.2583,-88.2131,4.25,21.84,1111122 
DISL,ioos:station:DISL:KATA:1,2017-08-05T10:00:00Z,30.2583,-88.2131,4.263,21.96,1111122 
DISL,ioos:station:DISL:KATA:1,2017-08-05T10:30:00Z,30.2583,-88.2131,4.299,22.04,1111122 
DISL,ioos:station:DISL:KATA:1,2017-08-05T11:00:00Z,30.2583,-88.2131,4.329,22.01,1111122 
DISL,ioos:station:DISL:KATA:1,2017-08-05T11:30:00Z,30.2583,-88.2131,4.351,22.03,1111122 
DISL,ioos:station:DISL:KATA:1,2017-08-05T12:00:00Z,30.2583,-88.2131,4.376,22.19,1111122 
DISL,ioos:station:DISL:KATA:1,2017-08-05T12:30:00Z,30.2583,-88.2131,4.401,22.49,1111122 
DISL,ioos:station:DISL:KATA:1,2017-08-05T13:00:00Z,30.2583,-88.2131,4.423,22.65,1111122 
DISL,ioos:station:DISL:KATA:1,2017-08-05T13:30:00Z,30.2583,-88.2131,4.438,22.63,1111122 
DISL,ioos:station:DISL:KATA:1,2017-08-05T14:00:00Z,30.2583,-88.2131,4.443,22.67,1111122 
DISL,ioos:station:DISL:KATA:1,2017-08-05T14:30:00Z,30.2583,-88.2131,4.437,22.68,1111122 
DISL,ioos:station:DISL:KATA:1,2017-08-05T15:00:00Z,30.2583,-88.2131,4.422,22.69,1111122 
DISL,ioos:station:DISL:KATA:1,2017-08-05T15:30:00Z,30.2583,-88.2131,4.403,22.65,1111122 
DISL,ioos:station:DISL:KATA:1,2017-08-05T16:00:00Z,30.2583,-88.2131,4.372,22.68,1111122 
DISL,ioos:station:DISL:KATA:1,2017-08-05T16:30:00Z,30.2583,-88.2131,4.337,22.7,1111122 
DISL,ioos:station:DISL:KATA:1,2017-08-05T17:00:00Z,30.2583,-88.2131,4.31,22.72,1111122 
DISL,ioos:station:DISL:KATA:1,2017-08-05T17:30:00Z,30.2583,-88.2131,4.294,22.81,1111122 
DISL,ioos:station:DISL:KATA:1,2017-08-05T18:00:00Z,30.2583,-88.2131,4.279,22.84,1111122 
DISL,ioos:station:DISL:KATA:1,2017-08-05T18:30:00Z,30.2583,-88.2131,4.248,22.83,1111122 
DISL,ioos:station:DISL:KATA:1,2017-08-05T19:00:00Z,30.2583,-88.2131,4.212,22.68,1111122 
DISL,ioos:station:DISL:KATA:1,2017-08-05T19:30:00Z,30.2583,-88.2131,4.17,22.53,1111122 
DISL,ioos:station:DISL:KATA:1,2017-08-05T20:00:00Z,30.2583,-88.2131,4.122,22.2,1111122 
DISL,ioos:station:DISL:KATA:1,2017-08-05T20:30:00Z,30.2583,-88.2131,4.075,22.05,1111122 
DISL,ioos:station:DISL:KATA:1,2017-08-05T21:00:00Z,30.2583,-88.2131,4.036,21.91,1111122 
DISL,ioos:station:DISL:KATA:1,2017-08-05T21:30:00Z,30.2583,-88.2131,4.0,21.84,1111122 
DISL,ioos:station:DISL:KATA:1,2017-08-05T22:00:00Z,30.2583,-88.2131,3.969,21.75,1111122 
DISL,ioos:station:DISL:KATA:1,2017-08-05T22:30:00Z,30.2583,-88.2131,3.949,21.65,1111122 
DISL,ioos:station:DISL:KATA:1,2017-08-05T23:00:00Z,30.2583,-88.2131,3.939,21.68,1111122 
DISL,ioos:station:DISL:KATA:1,2017-08-05T23:30:00Z,30.2583,-88.2131,3.925,21.55,1111122 
DISL,ioos:station:DISL:KATA:1,2017-08-06T00:00:00Z,30.2583,-88.2131,3.921,21.63,1111122 
DISL,ioos:station:DISL:KATA:1,2017-08-06T00:30:00Z,30.2583,-88.2131,3.93,21.6,1111122 
DISL,ioos:station:DISL:KATA:1,2017-08-06T01:00:00Z,30.2583,-88.2131,3.943,21.51,1111122 
DISL,ioos:station:DISL:KATA:1,2017-08-06T01:30:00Z,30.2583,-88.2131,3.959,21.47,1111122 
DISL,ioos:station:DISL:KATA:1,2017-08-06T02:00:00Z,30.2583,-88.2131,3.968,21.49,1111122 
DISL,ioos:station:DISL:KATA:1,2017-08-06T02:30:00Z,30.2583,-88.2131,3.968,21.5,1111122 
DISL,ioos:station:DISL:KATA:1,2017-08-06T03:00:00Z,30.2583,-88.2131,3.967,21.49,1111122 
DISL,ioos:station:DISL:KATA:1,2017-08-06T03:30:00Z,30.2583,-88.2131,3.978,21.49,1111122 
DISL,ioos:station:DISL:KATA:1,2017-08-06T04:00:00Z,30.2583,-88.2131,3.991,21.49,1111122 
DISL,ioos:station:DISL:KATA:1,2017-08-06T04:30:00Z,30.2583,-88.2131,4.013,21.83,1111122 
DISL,ioos:station:DISL:KATA:1,2017-08-06T05:00:00Z,30.2583,-88.2131,4.038,22.18,1111122 
DISL,ioos:station:DISL:KATA:1,2017-08-06T05:30:00Z,30.2583,-88.2131,4.069,22.2,1111122 
DISL,ioos:station:DISL:KATA:1,2017-08-06T06:00:00Z,30.2583,-88.2131,4.105,22.25,1111122 
DISL,ioos:station:DISL:KATA:1,2017-08-06T06:30:00Z,30.2583,-88.2131,4.129,22.3,1111122 
DISL,ioos:station:DISL:KATA:1,2017-08-06T07:00:00Z,30.2583,-88.2131,4.154,22.37,1111122 
DISL,ioos:station:DISL:KATA:1,2017-08-06T07:30:00Z,30.2583,-88.2131,4.154,22.37,1111122 
DISL,ioos:station:DISL:KATA:1,2017-08-06T08:00:00Z,30.2583,-88.2131,4.202,22.44,1111122 
DISL,ioos:station:DISL:KATA:1,2017-08-06T08:30:00Z,30.2583,-88.2131,4.223,22.48,1111122 
DISL,ioos:station:DISL:KATA:1,2017-08-06T09:00:00Z,30.2583,-88.2131,4.24,22.46,1111122 
DISL,ioos:station:DISL:KATA:1,2017-08-06T09:30:00Z,30.2583,-88.2131,4.273,22.46,1111122 
DISL,ioos:station:DISL:KATA:1,2017-08-06T10:00:00Z,30.2583,-88.2131,4.301,22.44,1111122 
DISL,ioos:station:DISL:KATA:1,2017-08-06T10:30:00Z,30.2583,-88.2131,4.324,22.44,1111122 
DISL,ioos:station:DISL:KATA:1,2017-08-06T11:00:00Z,30.2583,-88.2131,4.353,22.63,1111122 
DISL,ioos:station:DISL:KATA:1,2017-08-06T11:30:00Z,30.2583,-88.2131,4.383,22.71,1111122 
DISL,ioos:station:DISL:KATA:1,2017-08-06T12:00:00Z,30.2583,-88.2131,4.404,22.79,1111122 
DISL,ioos:station:DISL:KATA:1,2017-08-06T12:30:00Z,30.2583,-88.2131,4.438,22.8,1111122 
DISL,ioos:station:DISL:KATA:1,2017-08-06T13:00:00Z,30.2583,-88.2131,4.454,22.73,1111122 
DISL,ioos:station:DISL:KATA:1,2017-08-06T13:30:00Z,30.2583,-88.2131,4.473,22.78,1111122 
DISL,ioos:station:DISL:KATA:1,2017-08-06T14:00:00Z,30.2583,-88.2131,4.48,22.78,1111122 